Regional Weather Roundup
Issued by NWS

Home | Current Version | Previous Version | Graphics & Text | Print | Product List | Glossary On
Versions: 1 2 3 4 5 6 7 8 9 10 11 12 13 14 15 16 17 18 19 20 21 22 23 24 25 26 27 28 29 30 31 32 33 34 35 36 37 38 39 40 41 42 43 44 45 46 47 48 49 50
000
ASUS43 KOAX 240502
RWRNE

WEATHER ROUNDUP FOR NEBRASKA
NATIONAL WEATHER SERVICE OMAHA NE
1100 PM CST FRI FEB 23 2018

NOTES: SATELLITE DATA IS BEING USED TO AUGMENT CLOUD COVER ABOVE
       12000 FEET.
       "FAIR" INDICATES FEW OR NO CLOUDS BELOW 12,000 FEET WITH NO
       SIGNIFICANT WEATHER AND/OR OBSTRUCTIONS TO VISIBILITY.


NEZ001>004-019>022-054>056-240600-
NEBRASKA PANHANDLE

CITY           SKY/WX    TMP DP  RH WIND       PRES   REMARKS
SCOTTSBLUFF    CLOUDY    21  17  84 E9        29.98F WCI  11
ALLIANCE       CLOUDY    18  14  84 SE7       29.99F WCI   9
CHADRON        CLOUDY     5   1  83 W3        30.02F
GORDON         FAIR       3  -2  81 CALM      30.01F
KIMBALL        MOCLDY    23  19  86 S10       29.94S WCI  12
SIDNEY         CLOUDY    22  19  89 SE9       29.98F WCI  12
$$

NEZ057>060-069>072-079>082-240600-
SOUTHWEST NEBRASKA

CITY           SKY/WX    TMP DP  RH WIND       PRES   REMARKS
NORTH PLATTE   CLOUDY    18  14  84 E12       30.09F WCI   5
IMPERIAL       CLOUDY    21  19  92 NE8       30.05S WCI  11
LEXINGTON      CLOUDY    22  20  93 E12       30.13S WCI  10
MCCOOK         CLOUDY    24  23  96 E16       30.11R FOG     WCI  11
OGALLALA       CLOUDY    20  17  88 E10       30.05F WCI   8
$$

NEZ005>010-023>029-035>040-094-240600-
NORTH CENTRAL NEBRASKA

CITY           SKY/WX    TMP DP  RH WIND       PRES   REMARKS
VALENTINE      PTCLDY    11   7  84 CALM      30.11F
AINSWORTH      PTCLDY     6   4  91 S6        30.12F WCI  -4
BROKEN BOW     CLOUDY    13   9  84 E3        30.12F
O`NEILL        FOG        3   0  88 CALM      30.18F VSB 1/4
ORD            PTCLDY     9   7  92 S3        30.17F
THEDFORD         N/A     10   8  89 CALM      30.10F
$$

NEZ041-046>049-061>064-073>077-083>087-240600-
SOUTH CENTRAL NEBRASKA

CITY           SKY/WX    TMP DP  RH WIND       PRES   REMARKS
GRAND ISLAND   CLOUDY    22  18  85 NE12      30.18F WCI  10
AURORA         CLOUDY    22  19  91 E10       30.18F WCI  11
HASTINGS       CLOUDY    23  19  85 E12       30.16F WCI  12
HEBRON         CLOUDY    27  24  89 NE10      30.19F WCI  17
HOLDREGE       CLOUDY    23  22  97 E10       30.13F WCI  12
KEARNEY        CLOUDY    22  20  92 E14       30.15F WCI   9
YORK           CLEAR     21  21 100 NE9       30.20F WCI  11
$$

NEZ011>018-030>034-042>045-240600-
NORTHEAST NEBRASKA

CITY           SKY/WX    TMP DP  RH WIND       PRES   REMARKS
NORFOLK        FOG       16  15  96 E6        30.22F VSB 1   WCI   7
ALBION         CLOUDY    11   8  90 CALM      30.20F
BLAIR          CLOUDY    21  20  94 NE7       30.24F WCI  13
COLUMBUS       CLOUDY    19  17  92 NE14      30.24F FOG     WCI   6
FREMONT        CLOUDY    21  20  96 NE5       30.26F WCI  15
TEKAMAH        CLOUDY    21  19  92 NE9       30.28F WCI  11
WAYNE          CLOUDY    17  16  96 NE6       30.25F FOG     WCI   8
$$

NEZ050>053-065>068-078-088>093-240600-
SOUTHEAST NEBRASKA

CITY           SKY/WX    TMP DP  RH WIND       PRES   REMARKS
LINCOLN        CLOUDY    24  20  84 NE13      30.24F WCI  12
OMAHA EPPLEY   CLOUDY    22  19  89 NE9       30.28F WCI  12
BEATRICE       CLOUDY    28  26  91 NE8       30.20F FOG     WCI  20
FALLS CITY     CLOUDY    31  27  85 N7        30.21F WCI  24
NEBRASKA CITY  CLOUDY    27  27 100 NE9       30.22F WCI  17
PLATTSMOUTH    CLOUDY    24  23  94 NE8       30.24F WCI  16
$$

NEZ044-045-051>053-067-240600-
OMAHA AREA

CITY           SKY/WX    TMP DP  RH WIND       PRES   REMARKS
OMAHA EPPLEY   CLOUDY    22  19  89 NE9       30.28F WCI  12
BLAIR          CLOUDY    21  20  94 NE7       30.24F WCI  13
FREMONT        CLOUDY    21  20  96 NE5       30.26F WCI  15
MILLARD        CLOUDY    25  21  86 E6        30.27F FOG     WCI  18
OFFUTT AFB     CLOUDY    23  19  86 N6        30.26F WCI  16
PLATTSMOUTH    CLOUDY    24  23  94 NE8       30.24F WCI  16
WAHOO          CLOUDY    22  20  93 NE9       30.24F FOG     WCI  11
$$




USA.gov is the U.S. government's official web portal to all federal, state and local government web resources and services.